Live Position
Loading 3D Globe...
About Beidou DW 38
Group: 3 satellites
Description loading...
Upcoming Passes
Passes for default location (London). Set your location on the main map for personalized predictions.
Altitude History
Loading altitude history...
No altitude history available
Two-Line Element Set
1 43623U 18072B 26104.50353116 .00000001 00000-0 00000+0 0 9993
2 43623 56.5729 64.7539 0006821 337.5005 22.4488 1.86231497 51463
Epoch: Apr 14, 2026 •
Age: 73 hours
Current Status
Altitude 21547.2 km
Velocity 3.78 km/s
Sub-Earth Point -37.33°S,
120.31°W
Launch Date Sep 19, 2018
Age 7.5 years
Type navigation
Technical Details
Classification Payload
Mass 1014.00 kg
Dry Mass 850.00 kg
Total Mass 1014.00 kg
Length 2.20 m
Diameter 1.70 m
Span 10.00 m
Shape Box + 2 Pan
Manufacturer CAST
Bus Type BD-3M/SAR
Phase Status In Orbit
Owner/State CNSA/CN
Most Searched
Loading...